Tracking 30995 objects as of 6-Jul-2025
HD Live streaming from Space Station
objects crossing your sky now

STARLINK-3312

Track STARLINK-3312 now!
10-day predictions
STARLINK-3312 is classified as:


NORAD ID: 50850
Int'l Code: 2022-001AZ
Perigee: 546.1 km
Apogee: 547.7 km
Inclination: 53.2 °
Period: 95.4 minutes
Semi major axis: 6917 km
RCS: Unknown
Launch date: January 6, 2022
Source: United States (US)
Launch site: AIR FORCE EASTERN TEST RANGE (AFETR)
Your satellite tracking list
Your tracking list is empty




NASA's NSSDC Master Catalog

Two Line Element Set (TLE):
1 50850U 22001AZ  25186.92810148  .00000846  00000-0  71246-4 0  9990
2 50850  53.2172 166.8786 0001196  78.5719 281.5408 15.08837511194850
Source of the keplerian elements: AFSPC